STARLINK-11443, 62512

Orbit data source: Space-Track

STARLINK-11443, 62512 is a payload satellite owned by SpaceX/Seattle (US) in LEO that was launched on Wed, 08 Jan 2025 UTC via an FALCON 9 launch vehicle from the Air Force Eastern Test Range (AFETR). Payload-class satellites include a variety of spacecraft equipped with specific instruments for various scientific and technological missions. These include communications satellites like Starlink; space stations such as the ISS; scientific satellites like the Hubble; Earth observation satellites from companies like Planet Labs, Umbra, and HawkEye 360; GPS; miniature CubeSats for education and research; and military/defense satellites.

Loading next visibility...
Identifier
62512, 2025-004B
Orbit
LEO
Last TLE update
1 day ago
Origin
Manufacturer
SpaceX/Seattle
Mission
Operational Commercial Communications
Bus & Motor
STARLINK V2M, Unknown motor
Mass
730 kg wet, ~700 kg dry
Launch date (UTC)
2025-01-08 (6 months ago)
Launch vehicle
FALCON 9
Launch site
Air Force Eastern Test Range (AFETR)
Object type
Payload
Rocket body
Debris
Shape & HBR
Box + 2 Pan, 29 m
Radar Cross Section
36.964 m², Large (>1 m²)

Expand to show TLE details & history

TLE from 1 day ago
0 STARLINK-11443
1 62512U 25004B   25181.32697536  .00114894  00000-0  88504-3 0  9990
2 62512  43.0002 152.3203 0002258 256.6592 103.4024 15.70879764 27518
Epoch: 2025-06-30T07:50Z
TLE epoch observation values (Epoch: 2025-06-30T07:50:50.671Z)
Latitude
Longitude
115.97079°
Altitude
356.505 km
Speed
7.697 km/s
True Right ascension
10h 09m 16s
True Declination
0° 00' 00"
Sunlit
Object was in daylight at epoch
Visualization orbit readout
Latitude
40.03916°
Longitude
-133.92049°
Altitude
359.491 km
Speed
7.699 km/s
Apparent Right ascension
13h 11m 06s
Apparent Declination
3° 44' 27"
Sunlit
Object is in full shadow
Visualization observer readout
Local Sidereal Time
20:21:44
Azimuth
284.408° WNW
Elevation
-10.971°
Doppler factor
1
Orbital elements
Apogee altitude
359.884 km
Perigee altitude
356.842 km
Semi-major axis
6,736.5 km
Eccentricity
0.00023
Inclination
43.0002°
RAAN
152.3203°
Arg. of periapsis
256.6592°
True anomaly
Unknown
Mean anomaly
103.4024°
Eccentric anomaly
Unknown
Mean motion
3.92547 °/min
Orbital period
91.71 mins
BSTAR
0.00088504
Loading maneuver chart data...
Loading SW <> Apogee altitude chart data...
Loading historical data...
Loading historical data...
Loading historical data...
Loading historical data...
Loading historical data...
Loading historical data...
Loading historical data...

STARLINK-11443 Visibility forecast

Observer location: undefined°, undefined°

Span
Click to sort rows by Start time (UTC) header in descending order
Start Az.
Max El. time (UTC)
Max El. Az.
Max El.
End time (UTC)
End Az.
4 mins2025-07-02 01:16:34.636Z221.678° SW2025-07-02 01:18:34.636Z144.176° SSE35.191°2025-07-02 01:20:34.636Z84.579° E
4 mins2025-07-02 04:29:34.636Z306.249° NW2025-07-02 04:30:34.636Z347.397° N36.548°2025-07-02 04:33:34.636Z85.488° E
4 mins2025-07-02 06:05:34.636Z266.709° W2025-07-02 06:06:34.636Z230.61° WSW34.917°2025-07-02 06:09:34.636Z130.651° SE
|